Regional Weather Roundup
Issued by NWS

Home | Current Version | Previous Version | Graphics & Text | Print | Product List | Glossary On
Versions: 1 2 3 4 5 6 7 8 9 10 11 12 13 14 15 16 17 18 19 20 21 22 23 24 25 26 27 28 29 30 31 32 33 34 35 36 37 38 39 40 41 42 43 44 45 46 47 48 49 50
000
ASUS43 KLMK 180810
RWRKY
KENTUCKY REGIONAL WEATHER ROUNDUP
NATIONAL WEATHER SERVICE LOUISVILLE KY
400 AM EDT FRI APR 18 2014

NOTE "FAIR" INDICATES FEW OR NO CLOUDS BELOW 12,000 FEET
WITH NO SIGNIFICANT WEATHER AND/OR OBSTRUCTIONS TO VISIBILITY.

KYZ001>023-026-027-061>063-070>075-180900-
WESTERN AND SOUTH CENTRAL KENTUCKY

CITY           SKY/WX    TMP DP  RH WIND       PRES   REMARKS
PADUCAH        PTCLDY    48  41  76 CALM      30.24R
HENDERSON      MOCLDY    46  39  76 CALM      30.25R
OWENSBORO      CLOUDY    49  42  76 CALM      30.26R
HOPKINSVILLE   MOCLDY    52  41  66 SE6       30.26R
BOWLING GREEN  MOCLDY    49  41  74 CALM      30.28R
GLASGOW        CLOUDY    46  40  77 CALM      30.28R
$$

KYZ024-025-028>034-038-045-046-053-180900-
NORTH CENTRAL KENTUCKY

CITY           SKY/WX    TMP DP  RH WIND       PRES   REMARKS
LOUISVILLE/SDF CLOUDY    50  40  68 E5        30.27R
LOUISVILLE/LOU MOCLDY    50  40  68 CALM      30.27R
FORT KNOX      CLOUDY    46  38  75 CALM      30.26R
$$

KYZ035>037-039>044-047>052-055>060-089>105-180900-
NORTHEAST KENTUCKY

CITY           SKY/WX    TMP DP  RH WIND       PRES   REMARKS
LEXINGTON      CLOUDY    47  37  68 S5        30.27R
COVINGTON      CLOUDY    43  36  76 W5        30.26R
FRANKFORT      CLOUDY    43  38  82 CALM      30.27R
$$

KYZ054-064>069-076>088-106>120-180900-
SOUTHEAST KENTUCKY

CITY           SKY/WX    TMP DP  RH WIND       PRES   REMARKS
JACKSON        CLOUDY    54  23  30 VRB5      30.30R
LONDON         CLOUDY    47  35  63 CALM      30.30R
SOMERSET       CLOUDY    45  36  70 CALM      30.30S
MIDDLESBORO    CLOUDY    42  36  77 CALM      30.33R
MONTICELLO     CLOUDY    46  42  86 CALM      30.31S
$$




USA.gov is the U.S. government's official web portal to all federal, state and local government web resources and services.